WGS F5 (USA 243)

Last updated on Thu Nov 21 2024 00:02:42 GMT+0000 (Coordinated Universal Time)

1 39168U 13024A 24324.78452132 -.00000283 00000+0 00000+0 0 9996 2 39168 0.0114 311.9658 0000604 313.3191 23.9688 1.00271401 41411
UTC large
Height (km)
Speed (km/s)
/
Latitude / Longitude
Inclination (degrees)
Orbital Period (minutes)
Azimuth
Elevation
Range (km)
Doppler Factor

Next 0 passes for location: London (51.5072 / 0.1276)

Sorry there are no passes over London.